Location: Frizzleburg
(41.0764°N, 80.4548°W)
Time: 08:23:18
(UTC+00:00)

PAYLOAD B - Pass Details

Date: 17 November 2019
Orbit: 848 x 872 km, 99.1° (Epoch: 08 December)

Event Time Altitude Azimuth Distance (km) Brightness Sun altitude
Rises 10:56:00 0° 12° (NNE) 3,424 7.4 -14.3°
Reaches altitude 10° 10:58:22 10° 11° (N) 2,483 6.6 -13.9°
Maximum altitude 11:03:52 76° 287° (WNW) 878 4.1 -12.9°
Drops below altitude 10° 11:09:20 10° 202° (SSW) 2,467 6.6 -11.9°
Sets 11:11:41 0° 201° (SSW) 3,400 7.3 -11.4°
